Location: Apollonia
(45.4499°N, 91.3019°W)
Time: 15:34:47
(UTC+00:00)

ISS - Visible Passes

Search period start: 01 December 2021 00:00
Search period end: 11 December 2021 00:00
Orbit: 417 x 423 km, 51.6° (Epoch: 01 December)

Date Brightness Start Highest point End Pass type
(mag) Time Alt. Az. Time Alt. Az. Time Alt. Az.
01 Dec -1.8 00:42:55 10° NW 00:44:35 24° NW 00:44:35 24° NW visible
01 Dec -2.9 23:55:43 10° NW 23:58:53 34° NNE 23:59:22 32° NNE visible
02 Dec -2.6 23:08:30 10° NW 23:11:33 30° N 23:14:13 12° ENE visible
03 Dec -2.0 00:45:20 10° WNW 00:47:13 31° WNW 00:47:13 31° WNW visible
03 Dec -3.6 23:58:08 10° WNW 00:01:30 56° NNE 00:02:10 46° ENE visible
04 Dec -3.2 23:10:56 10° NW 23:14:13 42° NNE 23:17:15 11° E visible
05 Dec -2.1 00:47:50 10° WNW 00:50:16 34° WSW 00:50:16 34° WSW visible
06 Dec -3.4 00:00:31 10° WNW 00:03:54 66° SSW 00:05:33 27° SE visible
06 Dec -3.8 23:13:16 10° WNW 23:16:41 82° NNE 23:20:05 10° ESE visible
07 Dec -1.1 00:50:54 10° W 00:53:08 17° SW 00:54:07 15° SSW visible
08 Dec -1.5 00:03:11 10° W 00:06:04 26° SW 00:08:56 10° SSE visible
08 Dec -2.3 23:15:43 10° WNW 23:18:56 40° SW 23:22:08 10° SSE visible
10 Dec -0.6 23:18:45 10° W 23:20:56 16° SW 23:23:06 10° S visible
